Location: Gwatt
(46.7204°N, 7.6223°E)
Time: 01:17:45
(UTC+00:00)

Resurs 01 Rocket - Pass Details

Date: 18 September 2020
Orbit: 633 x 645 km, 98.0° (Epoch: 31 October)

Event Time Altitude Azimuth Distance (km) Brightness Sun altitude
Exits shadow 19:19:14 34° 83° (E) 1,077 2.3 -18.3°
Maximum altitude 19:19:45 35° 68° (ENE) 1,054 2.4 -18.3°
Drops below altitude 10° 19:23:48 10° 3° (N) 2,053 4.5 -19.0°
Sets 19:26:09 0° 355° (N) 2,966 5.5 -19.3°
